Location: Quedlinburg
(51.7921°N, 11.1414°E)
Time: 08:21:44
(UTC+02:00)

SO-50 - Pass Details

Date: 09 March 2026
Orbit: 567 x 673 km, 64.6° (Epoch: 13 April)

Event Time Altitude Azimuth Distance (km) Brightness Sun altitude
Exits shadow 03:26:54 33° 108° (ESE) 1,132 ? -29.8°
Drops below altitude 10° 03:29:37 10° 122° (ESE) 2,089 ? -29.4°
Sets 03:31:56 0° 126° (SE) 2,989 ? -29.1°
